GFSNIL_sfc_dewp_018.txt.gz
Dewpoint
36 33 30 29 27 25 24 23 21 19 18 17 18 19 20 22 22 22 21 22 22 19
34 32 30 28 27 25 23 19 18 18 17 18 18 18 19 17 18 19 21 22 23 22
29 28 28 27 25 23 19 17 17 17 16 17 17 17 18 18 19 19 20 20 21 21
27 26 24 23 22 20 17 16 16 15 15 15 16 16 16 17 18 19 20 21 21 20
25 24 22 19 18 16 15 15 14 14 14 14 15 14 13 15 18 20 20 20 21 19
23 21 18 17 15 15 14 14 15 16 15 14 15 14 13 16 19 20 21 21 21 19
21 19 17 16 15 15 14 15 16 15 15 15 14 14 15 20 22 21 21 21 22 19
18 18 17 16 15 15 16 16 16 15 15 15 13 11 21 23 22 22 21 21 20 19
18 18 18 16 16 18 18 16 15 15 17 18 11 21 25 25 22 21 21 19 19 19
17 16 16 15 16 17 16 16 15 14 14 13 13 23 25 26 23 21 20 20 20 19
16 15 14 14 15 15 14 14 13 13 13 13 13 23 25 26 22 21 20 20 20 20
13 12 12 13 14 14 13 13 13 13 14 12 13 20 25 25 20 19 19 19 20 21
12 11 12 14 14 13 13 12 12 13 13 15 13 18 24 24 19 18 18 19 19 23
12 12 13 14 13 14 12 12 12 12 13 13 14 16 23 25 21 19 19 19 18 17

GFSNIL_sfc_dewp_024.txt.gz
Dewpoint
45 41 38 36 34 31 29 29 29 27 27 26 25 25 25 26 25 23 24 22 24 24
42 41 37 36 33 29 28 27 26 25 23 23 23 22 22 23 22 20 22 23 24 25
38 37 36 31 30 31 28 24 23 23 22 21 21 20 20 20 20 19 22 23 21 23
38 36 35 31 28 25 25 25 22 22 21 20 19 18 18 18 19 19 21 22 22 22
34 32 33 29 28 23 24 21 20 19 18 18 18 15 15 15 17 19 20 21 21 22
31 30 29 30 27 26 20 19 18 18 18 18 19 16 14 15 17 20 21 22 21 21
29 28 27 28 22 25 18 18 19 18 18 19 17 16 16 20 22 23 22 23 22 21
27 26 25 21 22 23 19 19 18 18 18 18 16 16 23 25 25 23 21 21 21 21
24 25 25 26 21 20 19 18 19 21 24 23 12 24 25 26 25 23 21 21 20 20
27 28 28 23 21 21 19 19 17 16 16 15 20 25 24 25 25 24 22 21 20 20
33 32 28 24 20 18 17 16 15 14 14 15 20 22 22 24 23 22 20 20 19 19
32 28 22 17 16 16 15 14 15 15 17 15 16 21 20 23 22 20 18 19 19 20
30 20 16 15 15 15 17 15 16 16 13 19 12 16 19 22 21 20 20 20 20 24
17 16 15 15 15 14 13 13 12 12 12 12 13 14 18 21 21 22 22 22 20 21

GFSNIL_sfc_dewp_030.txt.gz
Dewpoint
54 52 51 49 47 44 41 41 40 38 33 32 30 29 28 27 27 25 25 23 24 24
51 50 48 46 46 42 41 40 38 36 32 30 30 29 26 25 24 23 24 24 24 25
49 48 46 44 45 41 38 38 37 32 29 28 28 27 24 23 22 22 24 25 23 23
47 46 45 43 42 38 32 32 32 29 28 29 29 24 23 22 21 21 22 23 22 23
45 44 44 42 39 34 31 31 29 30 32 32 28 22 20 20 20 21 21 21 22 22
42 42 42 38 34 32 32 33 34 36 36 36 32 21 18 18 19 20 21 22 22 22
41 39 39 35 34 34 34 33 32 31 30 27 19 20 20 21 23 23 22 24 23 22
36 33 33 32 31 31 29 27 27 27 26 23 25 26 26 25 24 23 23 24 23 23
33 31 31 29 28 30 32 33 32 31 28 28 27 31 30 26 25 23 22 22 22 21
33 30 29 29 30 31 30 30 31 30 26 28 30 32 31 27 23 23 21 20 19 19
33 33 34 33 33 33 33 32 33 32 32 31 30 29 27 25 22 21 20 20 20 20
35 35 34 34 34 34 34 33 32 29 24 24 25 26 26 23 21 20 20 21 22 23
36 35 34 34 33 31 28 22 18 18 15 23 20 24 22 24 21 19 20 21 22 25
35 33 32 31 28 20 16 16 14 13 13 13 13 15 17 19 20 20 21 21 21 21

GFSNIL_sfc_dewp_033.txt.gz
Dewpoint
58 56 55 53 53 51 49 48 43 43 40 40 38 35 32 31 31 25 25 22 24 24
55 54 53 52 51 50 48 45 42 41 38 38 36 33 31 29 30 25 25 26 25 25
53 53 51 48 47 44 43 42 41 38 36 35 33 32 30 28 26 24 26 26 25 24
47 46 45 46 44 42 42 41 40 36 34 30 29 28 26 25 24 23 24 24 24 23
46 45 44 45 43 41 41 40 36 34 30 30 28 27 26 25 27 28 28 28 24 23
44 44 45 44 41 39 38 35 33 31 31 32 32 33 33 31 30 26 25 24 22 23
44 44 42 40 37 36 35 35 35 35 33 33 32 32 31 30 28 24 23 24 24 23
41 40 37 36 35 36 34 32 32 32 32 32 32 33 33 33 30 27 25 25 23 24
35 33 33 33 31 31 30 31 31 31 31 32 31 35 32 28 26 25 26 25 23 21
33 32 33 34 34 36 33 32 31 32 33 34 35 36 36 34 29 26 22 20 19 19
34 34 35 35 34 33 33 32 32 33 33 33 34 36 36 32 24 21 20 20 20 20
36 35 35 34 34 34 33 33 33 33 32 32 33 35 33 24 20 19 20 21 22 23
36 35 34 34 33 33 34 33 33 31 30 31 26 27 26 24 20 19 20 21 22 25
35 34 33 33 33 31 28 22 17 15 15 12 16 16 19 19 20 20 21 21 21 21

GFSNIL_sfc_dewp_039.txt.gz
Dewpoint
48 55 59 60 59 59 58 58 58 56 56 54 50 50 48 47 45 43 41 36 35 32
49 51 54 57 58 58 58 56 55 54 53 51 49 48 47 46 43 41 36 36 36 35
51 52 53 55 55 55 55 54 52 51 49 47 47 45 45 43 40 36 33 34 31 30
50 50 51 52 52 52 50 49 48 47 45 45 43 41 41 37 34 33 30 31 30 29
49 49 49 49 48 46 46 46 45 43 42 41 39 36 33 31 32 32 33 31 31 31
47 47 47 46 44 43 42 41 41 39 37 35 34 32 31 30 31 32 34 34 33 32
44 45 43 41 41 39 39 37 34 33 32 32 32 32 33 34 34 34 33 33 32 32
37 38 38 38 38 38 37 36 36 36 36 35 35 35 35 34 33 33 33 33 33 33
36 35 36 36 37 36 37 37 37 36 36 37 37 39 38 34 33 33 32 32 32 32
35 35 36 36 35 36 36 36 37 37 37 37 37 38 37 36 33 32 32 31 30 30
36 35 35 35 35 35 35 35 35 36 37 37 38 39 38 36 32 31 30 29 29 29
36 35 34 33 34 34 34 33 33 33 33 33 34 37 35 30 28 28 27 26 24 24
35 35 33 33 33 33 33 33 33 32 33 36 34 33 32 27 19 20 21 21 21 23
35 35 34 32 32 32 32 32 31 30 29 27 28 32 30 26 20 20 21 21 20 20